Regional Weather Roundup
Issued by NWS

Home | Current Version | Previous Version | Graphics & Text | Print | Product List | Glossary On
Versions: 1 2 3 4 5 6 7 8 9 10 11 12 13 14 15 16 17 18 19 20 21 22 23 24 25 26 27 28 29 30 31 32 33 34 35 36 37 38 39 40 41 42 43 44 45 46 47 48 49 50
000
ASUS43 KIND 250109
RWRIN

WEATHER ROUNDUP FOR INDIANA
NATIONAL WEATHER SERVICE INDIANAPOLIS IN
900 PM EDT THU JUL 24 2014

NOTE: "FAIR" INDICATES FEW OR NO CLOUDS BELOW 12,000 FEET WITH NO
SIGNIFICANT WEATHER AND/OR OBSTRUCTIONS TO VISIBILITY.

* - STATION DOES NOT REPORT WEATHER SUCH AS PRECIPITATION OR FOG.

+ - STATION NOT QUALITY CONTROLLED BY THE NATIONAL WEATHER SERVICE.
    USE DATA WITH CAUTION...ESPECIALLY DEWPOINT AND RELATIVE
    HUMIDITY OBSERVATIONS.

INZ001>003-010>013-019-020-250200-
NORTHWEST INDIANA

CITY           SKY/WX    TMP DP  RH WIND       PRES   REMARKS
GARY /AIRPORT/ PTCLDY    64  52  63 NE5       30.11R
KNOX *+        CLEAR     63  55  75 N5        30.08S
LA PORTE +     CLEAR     61  51  68 N5        30.10R
MICHIGAN CITY+ CLEAR     61  50  67 CALM      30.10S
MONTICELLO +   MOCLDY    68  56  65 CALM      30.06S
RENSSELAER +   CLEAR     64  57  77 N5        30.09R
VALPARAISO     CLEAR     62  51  67 N3        30.10R

$$

LMZ046-743>745-250200-
SOUTHERN LAKE MICHIGAN

STATION/POSITION TIME  TEMP WIND        PRES
                       AIR  DIR/SP/G
                 (UTC) (F)  (DEG/KT/KT) (MB)
MICHIGAN CITY    0100   65   10/  7/  8   N/A

$$

INZ004-005-014>016-021>024-250200-
NORTH CENTRAL INDIANA

CITY           SKY/WX    TMP DP  RH WIND       PRES   REMARKS
ELKHART        CLEAR     66  52  59 NW5       30.09R
GOSHEN         CLOUDY    68  57  68 NE3       30.07S
LOGANSPORT +   CLEAR     64  54  68 CALM      30.08R
PERU/GRISSOM   CLEAR     69  55  60 NW6       30.07S
ROCHESTER +    CLEAR     70  54  56 CALM      30.08S
SOUTH BEND     CLEAR     65  52  62 NW5       30.09S
WARSAW +       CLEAR     68  54  60 CALM      30.07S

$$

INZ006>009-017-018-025>027-250200-
NORTHEAST INDIANA

CITY           SKY/WX    TMP DP  RH WIND       PRES   REMARKS
ANGOLA *+      CLEAR     66  55  68 CALM      30.08S
AUBURN +       CLEAR     68  48  49 N3        30.08S
FORT WAYNE     MOCLDY    70  54  56 S3        30.07S
HUNTINGTON +   CLOUDY    69  55  61 CALM      30.06S

$$

INZ028-029-035-036-043>045-051>053-250200-
WEST CENTRAL INDIANA

CITY           SKY/WX    TMP DP  RH WIND       PRES   REMARKS
GREENCASTLE +  CLEAR     68  55  64 CALM      30.07F
LAFAYETTE      CLEAR     68  53  58 N5        30.06S
TERRE HAUTE    CLEAR     66  57  72 NE5       30.05F

$$

INZ030>032-037>040-046>048-054>057-064-065-250200-
CENTRAL INDIANA

CITY           SKY/WX    TMP DP  RH WIND       PRES   REMARKS
CP ATTERBURY + CLEAR     66  54  63 CALM      30.07S
COLUMBUS       PTCLDY    66  59  77 N3        30.07R
FRANKFORT +    CLEAR     66  55  68 CALM      30.09
GREENWOOD *+   PTCLDY    72  55  56 CALM      30.07
INDIANAPOLIS   PTCLDY    70  50  49 N7        30.06S
-EAGLE CREEK   MOCLDY    71  51  49 N6        30.06S
KOKOMO *+      CLEAR     70  55  60 NW5       30.07R
MARION +       MOCLDY    69  54  59 CALM      30.08R
MT COMFORT *+  CLEAR     64  63  94 E5        30.07S
SHELBYVILLE    PTCLDY    69  56  62 NE3       30.06S
ZIONSVILLE +   PTCLDY    68  54  60 CALM      30.08S

$$

INZ033-034-041-042-049-050-058-059-250200-
EAST CENTRAL INDIANA

CITY           SKY/WX    TMP DP  RH WIND       PRES   REMARKS
MUNCIE         CLEAR     66  53  63 E5        30.07S

$$

INZ060-061-067>069-081>083-085>088-250200-
SOUTHWEST INDIANA

CITY           SKY/WX    TMP DP  RH WIND       PRES   REMARKS
EVANSVILLE     CLEAR     75  56  51 NE5       30.03F
HUNTINGBURG *+ CLEAR     70  57  64 E5        30.05S
WASHINGTON +   CLEAR     68  62  81 CALM      30.04S

$$

INZ062-063-066-070>080-084-089>092-250200-
SOUTH CENTRAL AND SOUTHEAST INDIANA

CITY           SKY/WX    TMP DP  RH WIND       PRES   REMARKS
BLOOMINGTON    PTCLDY    69  57  65 N3        30.07R

$$




USA.gov is the U.S. government's official web portal to all federal, state and local government web resources and services.